EHI
1 1 0 0 0 0 0 1 0 0 0 0 0 1 1 1 0 0 0 0 0 0 0 0 1 2 4 5 9 17 22 20 15 9 4 2 1 0 0 0 0 0 0
1 0 0 0 0 0 0 1 0 0 0 0 0 0 0 0 0 0 0 0 0 0 0 1 1 2 3 4 6 11 18 19 15 9 3 1 0 0 0 0 0 0 0
0 1 1 0 0 0 0 0 0 0 0 0 0 0 0 0 0 0 0 0 0 0 1 2 2 2 2 2 3 5 10 13 12 8 3 1 0 0 0 0 0 0 0
2 2 1 1 1 1 0 0 0 0 0 0 0 0 0 0 0 0 0 0 0 0 0 2 3 3 1 1 2 3 4 6 7 6 4 2 1 0 0 0 0 0 0
4 3 1 1 1 1 0 0 0 0 0 0 0 0 0 0 0 0 0 0 0 0 0 0 2 2 1 2 2 1 3 5 5 4 4 2 1 0 0 0 0 0 0
3 2 1 0 1 1 0 0 0 0 0 0 0 0 0 0 0 0 0 0 0 0 0 0 0 0 1 1 2 2 5 7 7 5 4 3 2 1 0 0 0 0 0
1 1 1 0 0 1 0 0 0 0 0 0 0 0 0 0 0 0 0 0 0 0 0 0 0 0 0 1 2 5 7 9 8 6 5 5 4 2 1 0 0 0 0
0 0 0 0 0 0 0 0 0 0 0 0 0 0 0 0 0 0 0 0 0 0 0 0 0 0 0 0 1 4 6 8 9 9 9 8 5 2 1 1 0 0 0
0 0 0 0 0 0 0 0 0 0 0 0 0 0 0 0 0 0 0 0 0 0 0 0 0 0 0 0 0 1 2 4 7 11 12 11 6 1 0 0 0 0 0
0 0 0 0 0 0 0 0 0 0 0 0 0 0 0 0 0 0 0 0 0 0 0 0 0 0 0 0 0 0 0 1 4 9 12 10 6 2 1 1 0 0 0
0 0 0 0 0 0 0 0 0 0 0 0 0 0 0 0 0 0 0 0 0 0 0 0 0 0 0 0 0 0 0 0 2 4 6 6 5 3 2 1 1 1 1
0 0 0 0 0 0 0 0 0 0 0 0 0 0 0 0 0 0 0 0 0 0 0 0 0 0 0 0 0 0 0 0 1 1 1 2 2 2 1 1 1 3 3
0 0 0 0 0 0 0 0 0 0 0 0 0 0 0 0 0 0 0 0 0 0 0 0 0 0 0 0 0 0 0 0 0 0 0 0 0 0 0 0 1 3 4
0 0 0 0 0 0 0 0 0 0 0 0 0 0 0 0 0 0 0 0 0 0 0 0 0 0 0 0 0 0 0 0 0 0 0 0 0 0 0 0 0 1 1
0 0 0 0 0 0 0 0 0 0 0 0 0 0 0 0 0 0 0 0 0 0 0 0 0 0 0 0 0 0 0 0 0 0 0 0 0 0 0 0 0 0 0
0 0 0 0 0 0 0 0 0 0 0 0 0 0 0 0 0 0 0 0 0 0 0 0 0 0 0 0 0 0 0 0 0 0 0 0 0 0 0 0 0 0 0
0 0 0 0 0 0 0 0 0 0 0 0 0 0 0 0 0 0 0 0 0 0 0 0 0 0 0 0 0 0 0 0 0 0 0 0 0 0 0 0 0 0 0
0 0 0 0 0 0 0 0 0 0 0 0 0 0 0 0 0 0 0 0 0 0 0 0 0 0 0 0 0 0 0 0 0 0 0 0 0 0 0 0 0 0 0
0 0 0 0 0 0 0 0 0 0 0 0 0 0 0 0 0 0 0 0 0 0 0 0 0 0 0 0 0 0 0 0 0 0 0 0 0 0 0 0 0 0 0
0 0 0 0 0 0 0 0 0 0 0 0 0 0 0 0 0 0 0 0 0 0 0 0 0 0 0 0 0 0 0 0 0 0 0 0 0 0 0 0 0 0 0
0 0 0 0 0 0 0 0 0 0 0 0 0 0 0 0 0 0 0 0 0 0 0 0 0 0 0 0 0 0 0 0 0 0 0 0 0 0 0 0 0 0 0
0 0 0 0 0 0 0 0 0 0 0 0 0 0 0 0 0 0 0 0 0 0 0 0 0 0 0 0 0 0 0 0 0 0 0 0 0 0 0 0 0 0 0
0 0 0 0 0 0 0 0 0 0 0 0 0 0 0 0 0 0 0 0 0 0 0 0 0 0 0 0 0 0 0 0 0 0 0 0 0 0 0 0 0 0 0
0 0 0 0 0 0 0 0 0 0 0 0 0 0 0 0 0 0 0 0 0 0 0 0 0 0 0 0 0 0 0 0 0 0 0 0 0 0 0 0 0 0 0
0 0 0 0 0 0 0 0 0 0 0 0 0 0 0 0 0 0 0 0 0 0 0 0 0 0 0 0 0 0 0 0 0 0 0 0 0 0 0 0 0 0 0
0 0 0 0 0 0 0 0 0 0 0 0 0 0 0 0 0 0 0 0 0 0 0 0 0 0 0 0 0 0 0 0 0 0 0 0 0 0 0 0 0 0 0
Wind_Speed
5 5 4 4 5 4 4 4 4 5 5 5 6 7 7 8 8 7 6 13 14 14 14 14 13 13 14 16 17 18 18 19 18 18 18 19 18 18 17 17 16 15 14
5 5 4 4 4 4 4 4 4 4 3 3 4 5 6 6 7 7 7 8 12 12 13 13 13 13 13 14 15 16 16 17 18 18 19 19 19 18 18 18 18 17 16
7 6 4 4 4 3 4 3 3 2 2 2 4 4 4 5 6 7 7 6 6 10 13 13 12 13 13 14 15 14 15 15 16 17 18 19 19 19 18 19 19 18 18
7 5 4 4 4 2 2 2 2 2 2 2 3 3 3 4 6 6 6 6 5 6 9 12 12 13 14 14 14 13 13 14 15 16 18 19 19 19 19 19 19 19 19
6 5 4 4 3 2 2 2 2 2 2 2 3 3 3 4 4 5 6 7 7 7 6 8 12 13 14 15 14 14 14 14 14 15 17 18 19 19 19 19 19 18 19
5 5 4 4 4 3 2 2 2 2 2 2 2 3 3 3 3 4 5 5 5 6 6 7 6 8 12 13 14 15 16 16 16 16 16 15 16 17 18 18 19 19 19
5 5 4 4 4 4 4 4 3 2 1 1 0 2 2 2 2 2 2 2 3 4 4 5 5 5 5 10 12 14 16 17 17 17 16 14 14 15 16 17 18 19 19
4 4 4 4 4 3 4 4 3 2 2 2 2 1 2 3 2 1 1 1 1 2 3 4 4 5 5 4 7 12 15 17 18 18 16 15 14 15 15 16 16 17 18
2 2 2 3 4 4 4 5 4 5 3 2 2 3 2 2 2 2 2 1 2 2 3 4 4 5 5 5 6 9 13 13 15 17 16 15 14 15 15 15 15 16 17
4 3 2 2 2 3 4 4 5 4 4 3 2 2 2 2 1 2 3 2 3 3 4 4 4 5 4 4 6 8 10 11 13 15 15 14 14 14 14 14 15 16 17
4 4 3 2 1 2 3 4 4 5 4 4 4 3 2 1 2 2 3 3 3 3 4 4 4 4 4 3 3 5 7 8 9 10 11 11 12 13 14 15 16 17 17
2 3 4 3 3 2 3 3 4 5 5 5 4 4 4 3 3 4 4 3 3 3 4 3 3 3 3 2 3 3 4 4 5 6 7 7 9 10 12 14 15 15 16
1 2 2 2 2 3 3 3 3 4 6 6 6 5 5 4 4 4 3 3 3 3 3 2 1 2 2 2 2 3 1 1 2 2 3 4 5 6 7 10 11 11 12
3 3 3 3 3 3 3 3 3 4 4 6 7 6 5 5 5 5 4 3 3 2 2 3 1 1 1 2 3 4 4 4 4 4 3 3 2 2 3 4 5 6 7
4 4 4 4 3 3 3 3 3 4 4 5 6 6 6 5 5 5 5 4 3 3 3 2 1 0 1 2 3 3 4 7 7 6 6 5 4 3 2 1 2 3 4
5 5 5 4 4 4 4 3 3 3 4 4 4 6 6 5 5 5 6 5 5 4 4 2 2 1 1 2 4 4 5 9 9 9 8 8 7 6 5 4 3 2 1
6 6 6 5 5 5 4 4 4 4 4 4 4 5 6 6 5 5 5 5 6 6 6 3 2 1 2 3 4 4 4 5 6 10 10 10 10 10 9 8 7 7 7
8 8 7 7 7 7 5 5 6 5 5 5 5 5 6 5 6 5 5 7 6 7 6 6 3 2 2 4 5 5 4 5 6 10 12 12 12 12 12 12 12 11 11
9 8 8 8 9 8 7 7 7 6 6 6 6 6 6 6 6 5 6 7 6 6 6 5 4 2 2 4 5 5 6 5 6 8 12 13 14 14 14 13 13 13 13
9 9 9 9 9 9 8 8 7 7 7 7 6 6 7 7 7 7 6 7 7 7 7 6 5 4 3 5 5 5 5 4 5 6 8 9 12 15 14 14 14 14 14
11 10 9 9 9 8 9 9 9 8 8 7 7 7 7 9 11 8 7 7 8 7 7 6 6 5 5 6 6 5 6 6 4 3 5 6 6 7 8 11 13 14 14
10 9 10 10 10 9 11 14 11 8 8 8 8 8 8 9 11 12 13 12 11 10 9 8 7 8 8 8 7 8 8 6 4 2 4 5 5 6 6 6 10 13 13
9 9 10 10 10 11 14 14 14 9 8 8 8 8 7 7 8 8 10 12 13 14 13 10 10 10 11 11 11 11 8 6 5 6 5 5 4 6 6 7 11 12 12
8 8 9 9 9 11 14 14 14 9 8 9 9 9 9 9 8 8 8 8 9 11 13 11 9 10 10 11 12 11 10 9 7 4 3 5 3 4 5 6 9 11 11
8 7 6 8 9 10 13 13 12 6 7 9 9 9 10 10 11 11 9 9 8 8 10 11 10 10 14 16 14 11 11 11 8 4 2 5 5 5 5 5 7 10 10
8 7 7 8 9 9 11 13 11 5 7 7 7 8 11 12 11 11 10 9 9 8 8 9 9 12 13 16 18 14 13 12 9 6 4 5 7 5 5 3 3 4 6
Wind_Direction
234 232 235 237 238 236 239 244 238 235 232 233 232 236 238 237 238 234 239 245 246 242 243 243 239 233 231 229 225 221 219 219 217 214 213 214 214 213 211 212 211 210 208
228 231 236 237 237 233 232 231 230 227 228 226 236 239 241 241 243 241 240 245 249 247 244 243 238 232 231 231 228 223 222 222 220 218 216 215 215 215 214 213 212 210 210
227 224 227 235 233 229 227 220 221 217 228 228 245 251 247 245 247 247 247 245 247 246 246 244 240 238 235 233 229 224 222 224 223 222 220 218 217 216 216 215 215 213 212
226 217 218 228 225 213 204 197 186 189 220 231 248 258 255 254 254 254 252 250 248 250 249 248 245 242 242 238 230 225 224 225 227 226 223 221 219 218 217 217 217 215 214
223 211 217 219 208 197 197 196 180 182 203 225 245 252 254 256 260 261 255 251 247 247 247 252 253 249 247 243 232 227 226 227 227 229 228 225 222 220 219 218 218 217 216
223 209 208 205 191 183 189 185 179 182 196 216 258 272 273 268 263 258 259 260 256 254 252 254 255 254 251 245 235 230 227 225 222 225 229 229 225 221 219 218 218 218 218
227 214 208 193 186 188 192 181 166 172 186 166 153 317 314 289 274 260 261 258 264 268 266 259 254 253 254 247 240 234 230 226 224 223 222 222 224 223 221 220 218 217 219
243 223 207 199 194 187 186 181 167 161 175 165 154 110 341 341 341 354 324 280 305 304 298 286 267 254 250 248 243 236 230 228 226 223 221 217 216 218 219 220 218 217 219
301 288 248 216 201 192 196 196 181 172 178 187 180 161 164 236 306 321 327 331 323 311 310 306 292 279 261 247 248 242 237 230 229 228 226 220 216 218 219 218 219 218 219
16 8 329 260 230 215 211 207 193 183 166 180 193 204 187 168 184 307 313 318 315 302 308 307 304 296 280 259 249 245 241 234 233 232 227 222 217 216 216 219 224 223 221
11 10 1 341 292 249 240 226 202 196 187 179 176 172 175 182 191 216 276 307 313 291 289 294 298 300 301 283 263 252 243 234 229 228 228 226 223 218 216 221 227 226 223
349 357 2 355 335 297 262 246 227 212 207 197 186 180 175 177 187 197 235 268 289 289 292 293 298 307 312 310 296 280 242 227 224 221 223 225 225 223 222 222 227 227 225
307 315 334 326 326 314 289 259 239 235 218 211 204 202 201 205 186 183 211 249 270 286 293 288 289 310 328 348 355 6 14 198 196 201 210 217 221 224 226 226 228 230 229
250 268 278 286 291 300 306 287 253 243 234 228 222 212 209 213 202 196 195 208 259 269 262 265 297 344 11 22 37 39 52 71 88 93 103 112 131 185 209 219 232 234 234
245 251 258 272 279 280 283 291 270 256 242 237 234 225 219 215 208 210 205 202 214 253 270 246 237 84 76 58 51 57 61 70 77 80 84 87 86 86 101 150 212 222 226
239 248 256 260 266 269 267 263 266 269 256 245 235 231 229 219 211 210 209 209 210 222 248 237 222 181 118 98 84 81 78 74 71 74 75 78 79 77 75 77 80 92 126
234 236 242 247 255 260 260 256 256 257 256 259 257 243 238 224 214 212 208 207 210 213 238 239 214 173 148 136 109 92 83 73 71 72 75 74 75 74 71 71 73 77 77
237 234 236 238 244 249 245 242 253 254 247 250 252 252 253 242 226 214 209 212 212 210 220 229 207 182 162 148 129 113 99 88 82 76 76 75 73 74 73 73 72 72 72
239 237 231 235 239 240 240 238 239 246 244 245 245 244 249 248 244 227 218 217 215 212 209 211 200 173 146 144 131 115 106 98 90 84 77 73 74 74 73 73 74 74 75
235 237 233 233 235 236 238 238 235 239 242 244 243 244 245 242 243 236 227 222 215 211 206 203 193 174 155 147 141 136 123 104 92 82 77 73 73 72 71 74 78 79 78
236 234 234 235 233 231 235 233 232 235 235 241 247 247 247 247 244 238 232 221 209 209 204 199 190 176 167 162 157 147 134 118 84 86 89 70 68 67 64 66 75 81 82
236 231 229 232 232 232 231 229 226 229 231 236 248 253 255 258 254 246 238 224 209 206 206 199 193 187 178 168 153 151 146 143 128 127 101 77 67 70 62 68 76 83 85
234 228 230 229 231 234 233 235 235 228 230 236 241 249 258 257 247 247 243 231 219 213 207 201 196 190 177 171 160 160 160 148 130 145 120 91 74 73 62 66 75 82 87
236 229 229 227 228 238 237 236 237 232 232 238 240 242 246 255 250 239 240 234 227 219 214 211 208 194 178 168 165 157 143 119 105 113 113 108 101 85 72 64 66 83 89
244 232 228 228 228 239 238 236 234 224 231 240 242 242 240 248 244 231 230 230 227 222 215 207 199 180 164 158 152 143 144 141 135 133 117 116 128 109 84 65 62 77 88
247 242 235 230 228 235 239 237 229 218 231 241 244 243 240 240 240 226 224 222 222 212 189 181 174 163 160 157 157 160 158 153 144 143 156 131 147 135 109 80 72 84 92